Wetterdaten: Donnerstag, 10.09.2015
Datum Zeit Temp. A. Feuchte A. Luftdruck Regen Wind Richtung Richtung Sonnenschein ET UV Solar Taupunkt Windchill Windben Empfang
10.09.2015 00:04 6,5 C 97 % 1022,7 hPa 0,0 l/m 0,0 km/h (0 Bft) O 80 0 min 0,000 mm 0,0 UV-I 0 W/m 6,1 C 6,5 C 0,0 km/h (0 Bft) 0,00 %
10.09.2015 00:09 6,5 C 97 % 1022,6 hPa 0,0 l/m 0,0 km/h (0 Bft) O-NO 69 0 min 0,000 mm 0,0 UV-I 0 W/m 6,1 C 6,5 C 0,0 km/h (0 Bft) 0,00 %
10.09.2015 00:14 6,5 C 97 % 1022,6 hPa 0,0 l/m 0,0 km/h (0 Bft) O-NO 68 0 min 0,000 mm 0,0 UV-I 0 W/m 6,1 C 6,5 C 0,0 km/h (0 Bft) 0,00 %
10.09.2015 00:19 6,4 C 97 % 1022,7 hPa 0,0 l/m 0,0 km/h (0 Bft) NO 47 0 min 0,000 mm 0,0 UV-I 0 W/m 6,0 C 6,4 C 0,0 km/h (0 Bft) 0,00 %
10.09.2015 00:24 6,4 C 97 % 1022,9 hPa 0,0 l/m 0,0 km/h (0 Bft) O-NO 77 0 min 0,000 mm 0,0 UV-I 0 W/m 6,0 C 6,4 C 0,0 km/h (0 Bft) 0,00 %
10.09.2015 00:29 6,4 C 97 % 1022,7 hPa 0,0 l/m 0,0 km/h (0 Bft) O-NO 64 0 min 0,000 mm 0,0 UV-I 0 W/m 6,0 C 6,4 C 0,0 km/h (0 Bft) 0,00 %
10.09.2015 00:34 6,4 C 97 % 1022,6 hPa 0,0 l/m 0,0 km/h (0 Bft) O-NO 74 0 min 0,000 mm 0,0 UV-I 0 W/m 6,0 C 6,4 C 0,0 km/h (0 Bft) 0,00 %
10.09.2015 00:39 6,3 C 97 % 1022,5 hPa 0,0 l/m 0,0 km/h (0 Bft) O-NO 75 0 min 0,000 mm 0,0 UV-I 0 W/m 5,9 C 6,3 C 0,0 km/h (0 Bft) 0,00 %
10.09.2015 00:44 6,3 C 97 % 1022,4 hPa 0,0 l/m 0,0 km/h (0 Bft) O-NO 65 0 min 0,000 mm 0,0 UV-I 0 W/m 5,9 C 6,3 C 0,0 km/h (0 Bft) 0,00 %
10.09.2015 00:49 6,1 C 97 % 1022,5 hPa 0,0 l/m 0,0 km/h (0 Bft) O-NO 58 0 min 0,000 mm 0,0 UV-I 0 W/m 5,7 C 6,1 C 0,0 km/h (0 Bft) 0,00 %
10.09.2015 00:54 6,1 C 97 % 1022,4 hPa 0,0 l/m 0,0 km/h (0 Bft) O-NO 59 0 min 0,000 mm 0,0 UV-I 0 W/m 5,7 C 6,1 C 0,0 km/h (0 Bft) 0,00 %
10.09.2015 00:59 6,0 C 97 % 1022,2 hPa 0,0 l/m 0,0 km/h (0 Bft) O-NO 60 0 min 0,000 mm 0,0 UV-I 0 W/m 5,6 C 6,0 C 0,0 km/h (0 Bft) 0,00 %
10.09.2015 01:04 6,0 C 98 % 1022,2 hPa 0,0 l/m 0,0 km/h (0 Bft) NO 54 0 min 0,000 mm 0,0 UV-I 0 W/m 5,7 C 6,0 C 0,0 km/h (0 Bft) 0,00 %
10.09.2015 01:09 5,9 C 98 % 1022,5 hPa 0,0 l/m 0,0 km/h (0 Bft) O-NO 74 0 min 0,000 mm 0,0 UV-I 0 W/m 5,6 C 5,9 C 0,0 km/h (0 Bft) 0,00 %
10.09.2015 01:14 5,9 C 98 % 1022,5 hPa 0,0 l/m 0,0 km/h (0 Bft) O-NO 74 0 min 0,000 mm 0,0 UV-I 0 W/m 5,6 C 5,9 C 0,0 km/h (0 Bft) 0,00 %
10.09.2015 01:19 5,8 C 98 % 1022,3 hPa 0,0 l/m 0,0 km/h (0 Bft) O 79 0 min 0,000 mm 0,0 UV-I 0 W/m 5,5 C 5,8 C 0,0 km/h (0 Bft) 0,00 %
10.09.2015 01:24 5,7 C 98 % 1022,3 hPa 0,0 l/m 0,0 km/h (0 Bft) O-NO 63 0 min 0,000 mm 0,0 UV-I 0 W/m 5,4 C 5,7 C 0,0 km/h (0 Bft) 0,00 %
10.09.2015 01:29 5,7 C 98 % 1022,1 hPa 0,0 l/m 0,0 km/h (0 Bft) O-NO 75 0 min 0,000 mm 0,0 UV-I 0 W/m 5,4 C 5,7 C 0,0 km/h (0 Bft) 0,00 %
10.09.2015 01:34 5,7 C 98 % 1022,1 hPa 0,0 l/m 0,0 km/h (0 Bft) O-NO 75 0 min 0,000 mm 0,0 UV-I 0 W/m 5,4 C 5,7 C 0,0 km/h (0 Bft) 0,00 %
10.09.2015 01:39 5,6 C 98 % 1021,9 hPa 0,0 l/m 0,0 km/h (0 Bft) O 81 0 min 0,000 mm 0,0 UV-I 0 W/m 5,3 C 5,6 C 0,0 km/h (0 Bft) 0,00 %
10.09.2015 01:44 5,5 C 98 % 1022,0 hPa 0,0 l/m 0,0 km/h (0 Bft) O-NO 71 0 min 0,000 mm 0,0 UV-I 0 W/m 5,2 C 5,5 C 0,0 km/h (0 Bft) 0,00 %
10.09.2015 01:49 5,5 C 98 % 1022,1 hPa 0,0 l/m 0,0 km/h (0 Bft) O 84 0 min 0,000 mm 0,0 UV-I 0 W/m 5,2 C 5,5 C 0,0 km/h (0 Bft) 0,00 %
10.09.2015 01:54 5,5 C 98 % 1022,1 hPa 0,0 l/m 0,0 km/h (0 Bft) O-NO 64 0 min 0,000 mm 0,0 UV-I 0 W/m 5,2 C 5,5 C 0,0 km/h (0 Bft) 0,00 %
10.09.2015 01:59 5,5 C 98 % 1022,1 hPa 0,0 l/m 0,0 km/h (0 Bft) NO 55 0 min 0,000 mm 0,0 UV-I 0 W/m 5,2 C 5,5 C 0,0 km/h (0 Bft) 0,00 %
10.09.2015 02:04 5,5 C 98 % 1022,0 hPa 0,0 l/m 0,0 km/h (0 Bft) N 357 0 min 0,000 mm 0,0 UV-I 0 W/m 5,2 C 5,5 C 0,0 km/h (0 Bft) 0,00 %
10.09.2015 02:09 5,5 C 98 % 1022,0 hPa 0,0 l/m 0,0 km/h (0 Bft) O 99 0 min 0,000 mm 0,0 UV-I 0 W/m 5,2 C 5,5 C 0,0 km/h (0 Bft) 0,00 %
10.09.2015 02:14 5,7 C 97 % 1022,0 hPa 0,0 l/m 0,0 km/h (0 Bft) O 95 0 min 0,000 mm 0,0 UV-I 0 W/m 5,3 C 5,7 C 0,0 km/h (0 Bft) 0,00 %
10.09.2015 02:19 5,9 C 97 % 1021,9 hPa 0,0 l/m 0,7 km/h (0 Bft) NO 53 0 min 0,000 mm 0,0 UV-I 0 W/m 5,5 C 5,9 C 4,0 km/h (1 Bft) 0,00 %
10.09.2015 02:24 6,0 C 97 % 1022,0 hPa 0,0 l/m 0,0 km/h (0 Bft) NO 35 0 min 0,000 mm 0,0 UV-I 0 W/m 5,6 C 6,0 C 0,0 km/h (0 Bft) 0,00 %
10.09.2015 02:29 6,0 C 97 % 1022,1 hPa 0,0 l/m 0,0 km/h (0 Bft) NO 46 0 min 0,000 mm 0,0 UV-I 0 W/m 5,6 C 6,0 C 0,0 km/h (0 Bft) 0,00 %
10.09.2015 02:34 5,9 C 98 % 1021,8 hPa 0,0 l/m 0,0 km/h (0 Bft) N-NO 27 0 min 0,000 mm 0,0 UV-I 0 W/m 5,6 C 5,9 C 0,0 km/h (0 Bft) 0,00 %
10.09.2015 02:39 5,7 C 98 % 1022,0 hPa 0,0 l/m 0,0 km/h (0 Bft) NO 47 0 min 0,000 mm 0,0 UV-I 0 W/m 5,4 C 5,7 C 0,0 km/h (0 Bft) 0,00 %
10.09.2015 02:44 5,5 C 98 % 1021,9 hPa 0,0 l/m 0,0 km/h (0 Bft) NO 51 0 min 0,000 mm 0,0 UV-I 0 W/m 5,2 C 5,5 C 0,0 km/h (0 Bft) 0,00 %
10.09.2015 02:49 5,4 C 98 % 1021,8 hPa 0,0 l/m 0,0 km/h (0 Bft) O-NO 59 0 min 0,000 mm 0,0 UV-I 0 W/m 5,1 C 5,4 C 0,0 km/h (0 Bft) 0,00 %
10.09.2015 02:54 5,2 C 98 % 1021,9 hPa 0,0 l/m 0,0 km/h (0 Bft) O-NO 61 0 min 0,000 mm 0,0 UV-I 0 W/m 4,9 C 5,2 C 0,0 km/h (0 Bft) 0,00 %
10.09.2015 02:59 5,2 C 98 % 1021,7 hPa 0,0 l/m 0,0 km/h (0 Bft) NO 55 0 min 0,000 mm 0,0 UV-I 0 W/m 4,9 C 5,2 C 0,0 km/h (0 Bft) 0,00 %
10.09.2015 03:04 5,2 C 98 % 1021,8 hPa 0,0 l/m 0,0 km/h (0 Bft) NO 49 0 min 0,000 mm 0,0 UV-I 0 W/m 4,9 C 5,2 C 0,0 km/h (0 Bft) 0,00 %
10.09.2015 03:09 5,1 C 98 % 1022,0 hPa 0,0 l/m 0,0 km/h (0 Bft) NO 43 0 min 0,000 mm 0,0 UV-I 0 W/m 4,8 C 5,1 C 0,0 km/h (0 Bft) 0,00 %
10.09.2015 03:14 5,1 C 98 % 1022,0 hPa 0,0 l/m 0,0 km/h (0 Bft) NO 42 0 min 0,000 mm 0,0 UV-I 0 W/m 4,8 C 5,1 C 0,0 km/h (0 Bft) 0,00 %
10.09.2015 03:19 5,1 C 98 % 1021,7 hPa 0,0 l/m 0,0 km/h (0 Bft) O-NO 59 0 min 0,000 mm 0,0 UV-I 0 W/m 4,8 C 5,1 C 0,0 km/h (0 Bft) 0,00 %
10.09.2015 03:24 5,1 C 98 % 1021,8 hPa 0,0 l/m 0,0 km/h (0 Bft) O-NO 78 0 min 0,000 mm 0,0 UV-I 0 W/m 4,8 C 5,1 C 0,0 km/h (0 Bft) 0,00 %
10.09.2015 03:29 5,2 C 98 % 1021,8 hPa 0,0 l/m 0,0 km/h (0 Bft) O-SO 103 0 min 0,000 mm 0,0 UV-I 0 W/m 4,9 C 5,2 C 0,0 km/h (0 Bft) 0,00 %
10.09.2015 03:34 5,2 C 98 % 1021,8 hPa 0,0 l/m 0,0 km/h (0 Bft) O 91 0 min 0,000 mm 0,0 UV-I 0 W/m 4,9 C 5,2 C 0,0 km/h (0 Bft) 0,00 %
10.09.2015 03:39 5,2 C 98 % 1021,8 hPa 0,0 l/m 0,0 km/h (0 Bft) O-NO 70 0 min 0,000 mm 0,0 UV-I 0 W/m 4,9 C 5,2 C 0,0 km/h (0 Bft) 0,00 %
10.09.2015 03:44 5,2 C 98 % 1021,6 hPa 0,0 l/m 0,0 km/h (0 Bft) O 82 0 min 0,000 mm 0,0 UV-I 0 W/m 4,9 C 5,2 C 0,0 km/h (0 Bft) 0,00 %
10.09.2015 03:49 5,3 C 98 % 1021,8 hPa 0,0 l/m 0,0 km/h (0 Bft) O-NO 70 0 min 0,000 mm 0,0 UV-I 0 W/m 5,0 C 5,3 C 0,0 km/h (0 Bft) 0,00 %
10.09.2015 03:54 5,3 C 98 % 1021,7 hPa 0,0 l/m 0,0 km/h (0 Bft) O 83 0 min 0,000 mm 0,0 UV-I 0 W/m 5,0 C 5,3 C 0,0 km/h (0 Bft) 0,00 %
10.09.2015 03:59 5,4 C 98 % 1021,7 hPa 0,0 l/m 0,0 km/h (0 Bft) O-NO 77 0 min 0,000 mm 0,0 UV-I 0 W/m 5,1 C 5,4 C 0,0 km/h (0 Bft) 0,00 %
10.09.2015 04:04 5,6 C 98 % 1021,7 hPa 0,0 l/m 0,0 km/h (0 Bft) NO 47 0 min 0,000 mm 0,0 UV-I 0 W/m 5,3 C 5,6 C 0,0 km/h (0 Bft) 0,00 %
10.09.2015 04:09 5,6 C 98 % 1021,7 hPa 0,0 l/m 0,0 km/h (0 Bft) O 96 0 min 0,000 mm 0,0 UV-I 0 W/m 5,3 C 5,6 C 0,0 km/h (0 Bft) 0,00 %
10.09.2015 04:14 5,6 C 98 % 1021,8 hPa 0,0 l/m 0,0 km/h (0 Bft) O 92 0 min 0,000 mm 0,0 UV-I 0 W/m 5,3 C 5,6 C 0,0 km/h (0 Bft) 0,00 %
10.09.2015 04:19 5,6 C 98 % 1021,8 hPa 0,0 l/m 0,0 km/h (0 Bft) NO 51 0 min 0,000 mm 0,0 UV-I 0 W/m 5,3 C 5,6 C 0,0 km/h (0 Bft) 0,00 %
10.09.2015 04:24 5,5 C 98 % 1021,8 hPa 0,0 l/m 0,0 km/h (0 Bft) O 97 0 min 0,000 mm 0,0 UV-I 0 W/m 5,2 C 5,5 C 0,0 km/h (0 Bft) 0,00 %
10.09.2015 04:29 5,4 C 98 % 1021,6 hPa 0,0 l/m 0,0 km/h (0 Bft) NO 36 0 min 0,000 mm 0,0 UV-I 0 W/m 5,1 C 5,4 C 0,0 km/h (0 Bft) 0,00 %
10.09.2015 04:34 5,4 C 98 % 1021,8 hPa 0,0 l/m 0,4 km/h (0 Bft) O 81 0 min 0,000 mm 0,0 UV-I 0 W/m 5,1 C 5,4 C 4,0 km/h (1 Bft) 0,00 %
10.09.2015 04:39 5,5 C 98 % 1021,7 hPa 0,0 l/m 0,0 km/h (0 Bft) O 94 0 min 0,000 mm 0,0 UV-I 0 W/m 5,2 C 5,5 C 0,0 km/h (0 Bft) 0,00 %
10.09.2015 04:44 5,5 C 98 % 1021,7 hPa 0,0 l/m 0,0 km/h (0 Bft) NO 47 0 min 0,000 mm 0,0 UV-I 0 W/m 5,2 C 5,5 C 0,0 km/h (0 Bft) 0,00 %
10.09.2015 04:49 5,4 C 98 % 1021,7 hPa 0,0 l/m 0,0 km/h (0 Bft) NO 38 0 min 0,000 mm 0,0 UV-I 0 W/m 5,1 C 5,4 C 0,0 km/h (0 Bft) 0,00 %
10.09.2015 04:54 5,3 C 98 % 1021,7 hPa 0,0 l/m 0,0 km/h (0 Bft) NO 51 0 min 0,000 mm 0,0 UV-I 0 W/m 5,0 C 5,3 C 0,0 km/h (0 Bft) 0,00 %
10.09.2015 04:59 5,0 C 98 % 1021,5 hPa 0,0 l/m 0,0 km/h (0 Bft) O-NO 61 0 min 0,000 mm 0,0 UV-I 0 W/m 4,7 C 5,0 C 0,0 km/h (0 Bft) 0,00 %
10.09.2015 05:04 5,0 C 98 % 1021,3 hPa 0,0 l/m 0,0 km/h (0 Bft) NO 48 0 min 0,000 mm 0,0 UV-I 0 W/m 4,7 C 5,0 C 0,0 km/h (0 Bft) 0,00 %
10.09.2015 05:09 5,1 C 98 % 1021,5 hPa 0,0 l/m 0,0 km/h (0 Bft) NO 54 0 min 0,000 mm 0,0 UV-I 0 W/m 4,8 C 5,1 C 0,0 km/h (0 Bft) 0,00 %
10.09.2015 05:14 5,3 C 98 % 1021,5 hPa 0,0 l/m 0,0 km/h (0 Bft) NO 49 0 min 0,000 mm 0,0 UV-I 0 W/m 5,0 C 5,3 C 0,0 km/h (0 Bft) 0,00 %
10.09.2015 05:19 5,4 C 98 % 1021,5 hPa 0,0 l/m 0,0 km/h (0 Bft) NO 52 0 min 0,000 mm 0,0 UV-I 0 W/m 5,1 C 5,4 C 0,0 km/h (0 Bft) 0,00 %
10.09.2015 05:24 5,5 C 98 % 1021,4 hPa 0,0 l/m 0,0 km/h (0 Bft) O-NO 76 0 min 0,000 mm 0,0 UV-I 0 W/m 5,2 C 5,5 C 0,0 km/h (0 Bft) 0,00 %
10.09.2015 05:29 5,6 C 98 % 1021,2 hPa 0,0 l/m 0,0 km/h (0 Bft) O 98 0 min 0,000 mm 0,0 UV-I 0 W/m 5,3 C 5,6 C 0,0 km/h (0 Bft) 0,00 %
10.09.2015 05:34 5,7 C 98 % 1021,2 hPa 0,0 l/m 0,0 km/h (0 Bft) O-NO 64 0 min 0,000 mm 0,0 UV-I 0 W/m 5,4 C 5,7 C 0,0 km/h (0 Bft) 0,00 %
10.09.2015 05:39 5,8 C 97 % 1021,0 hPa 0,0 l/m 0,0 km/h (0 Bft) NO 49 0 min 0,000 mm 0,0 UV-I 0 W/m 5,4 C 5,8 C 0,0 km/h (0 Bft) 0,00 %
10.09.2015 05:44 5,9 C 98 % 1021,2 hPa 0,0 l/m 0,0 km/h (0 Bft) O-NO 73 0 min 0,000 mm 0,0 UV-I 0 W/m 5,6 C 5,9 C 0,0 km/h (0 Bft) 0,00 %
10.09.2015 05:49 5,8 C 98 % 1021,3 hPa 0,0 l/m 0,0 km/h (0 Bft) SO 131 0 min 0,000 mm 0,0 UV-I 0 W/m 5,5 C 5,8 C 0,0 km/h (0 Bft) 0,00 %
10.09.2015 05:54 5,8 C 98 % 1021,3 hPa 0,0 l/m 0,0 km/h (0 Bft) O 84 0 min 0,000 mm 0,0 UV-I 0 W/m 5,5 C 5,8 C 0,0 km/h (0 Bft) 0,00 %
10.09.2015 05:59 5,8 C 97 % 1021,4 hPa 0,0 l/m 0,0 km/h (0 Bft) NO 49 0 min 0,000 mm 0,0 UV-I 0 W/m 5,4 C 5,8 C 0,0 km/h (0 Bft) 0,00 %
10.09.2015 06:04 5,9 C 97 % 1021,5 hPa 0,0 l/m 0,0 km/h (0 Bft) NO 51 0 min 0,000 mm 0,0 UV-I 0 W/m 5,5 C 5,9 C 0,0 km/h (0 Bft) 0,00 %
10.09.2015 06:09 6,0 C 97 % 1021,4 hPa 0,0 l/m 0,0 km/h (0 Bft) NO 51 0 min 0,000 mm 0,0 UV-I 0 W/m 5,6 C 6,0 C 0,0 km/h (0 Bft) 0,00 %
10.09.2015 06:14 6,1 C 97 % 1021,2 hPa 0,0 l/m 0,0 km/h (0 Bft) O-NO 63 0 min 0,000 mm 0,0 UV-I 0 W/m 5,7 C 6,1 C 0,0 km/h (0 Bft) 0,00 %
10.09.2015 06:19 6,2 C 97 % 1021,3 hPa 0,0 l/m 0,0 km/h (0 Bft) NO 46 0 min 0,000 mm 0,0 UV-I 0 W/m 5,8 C 6,2 C 0,0 km/h (0 Bft) 0,00 %
10.09.2015 06:24 6,3 C 97 % 1021,4 hPa 0,0 l/m 0,0 km/h (0 Bft) NO 47 0 min 0,000 mm 0,0 UV-I 0 W/m 5,9 C 6,3 C 0,0 km/h (0 Bft) 0,00 %
10.09.2015 06:29 6,4 C 97 % 1021,3 hPa 0,0 l/m 0,0 km/h (0 Bft) O-NO 70 0 min 0,000 mm 0,0 UV-I 0 W/m 6,0 C 6,4 C 0,0 km/h (0 Bft) 0,00 %
10.09.2015 06:34 6,5 C 97 % 1021,5 hPa 0,0 l/m 0,0 km/h (0 Bft) NO 45 0 min 0,000 mm 0,0 UV-I 0 W/m 6,1 C 6,5 C 0,0 km/h (0 Bft) 0,00 %
10.09.2015 06:39 6,6 C 97 % 1021,5 hPa 0,0 l/m 0,0 km/h (0 Bft) NO 45 0 min 0,000 mm 0,0 UV-I 0 W/m 6,2 C 6,6 C 0,0 km/h (0 Bft) 0,00 %
10.09.2015 06:44 6,7 C 97 % 1021,5 hPa 0,0 l/m 0,0 km/h (0 Bft) O-NO 58 0 min 0,000 mm 0,0 UV-I 0 W/m 6,3 C 6,7 C 0,0 km/h (0 Bft) 0,00 %
10.09.2015 06:49 6,7 C 97 % 1021,6 hPa 0,0 l/m 0,0 km/h (0 Bft) NO 50 0 min 0,000 mm 0,0 UV-I 0 W/m 6,3 C 6,7 C 0,0 km/h (0 Bft) 0,00 %
10.09.2015 06:54 6,8 C 97 % 1021,5 hPa 0,0 l/m 0,0 km/h (0 Bft) O-NO 58 0 min 0,000 mm 0,0 UV-I 0 W/m 6,4 C 6,8 C 0,0 km/h (0 Bft) 0,00 %
10.09.2015 06:59 6,8 C 97 % 1021,5 hPa 0,0 l/m 0,0 km/h (0 Bft) O-NO 76 0 min 0,000 mm 0,0 UV-I 3 W/m 6,4 C 6,8 C 0,0 km/h (0 Bft) 0,00 %
10.09.2015 07:04 6,8 C 97 % 1021,4 hPa 0,0 l/m 0,0 km/h (0 Bft) NO 46 0 min 0,000 mm 0,0 UV-I 5 W/m 6,4 C 6,8 C 0,0 km/h (0 Bft) 0,00 %
10.09.2015 07:09 6,9 C 99 % 1021,6 hPa 0,0 l/m 0,0 km/h (0 Bft) SO 131 0 min 0,000 mm 0,0 UV-I 8 W/m 6,8 C 6,9 C 0,0 km/h (0 Bft) 0,00 %
10.09.2015 07:14 7,0 C 99 % 1021,5 hPa 0,0 l/m 0,0 km/h (0 Bft) O 97 0 min 0,000 mm 0,0 UV-I 9 W/m 6,9 C 7,0 C 0,0 km/h (0 Bft) 0,00 %
10.09.2015 07:19 7,0 C 99 % 1021,6 hPa 0,0 l/m 0,0 km/h (0 Bft) NO 56 0 min 0,000 mm 0,0 UV-I 12 W/m 6,9 C 7,0 C 0,0 km/h (0 Bft) 0,00 %
10.09.2015 07:24 7,1 C 99 % 1021,8 hPa 0,0 l/m 0,0 km/h (0 Bft) NO 52 0 min 0,000 mm 0,0 UV-I 12 W/m 7,0 C 7,1 C 0,0 km/h (0 Bft) 0,00 %
10.09.2015 07:29 7,1 C 98 % 1021,5 hPa 0,0 l/m 0,0 km/h (0 Bft) NO 51 0 min 0,000 mm 0,0 UV-I 20 W/m 6,8 C 7,1 C 0,0 km/h (0 Bft) 0,00 %
10.09.2015 07:34 7,2 C 98 % 1021,7 hPa 0,0 l/m 0,0 km/h (0 Bft) N-NO 33 0 min 0,000 mm 0,0 UV-I 23 W/m 6,9 C 7,2 C 0,0 km/h (0 Bft) 0,00 %
10.09.2015 07:39 7,2 C 97 % 1021,6 hPa 0,0 l/m 0,0 km/h (0 Bft) O-SO 122 0 min 0,000 mm 0,0 UV-I 28 W/m 6,8 C 7,2 C 0,0 km/h (0 Bft) 0,00 %
10.09.2015 07:44 7,3 C 97 % 1021,7 hPa 0,0 l/m 0,0 km/h (0 Bft) O 93 0 min 0,000 mm 0,0 UV-I 35 W/m 6,9 C 7,3 C 0,0 km/h (0 Bft) 0,00 %
10.09.2015 07:49 7,3 C 96 % 1021,5 hPa 0,0 l/m 0,4 km/h (0 Bft) SO 140 0 min 0,000 mm 0,0 UV-I 34 W/m 6,7 C 7,3 C 4,0 km/h (1 Bft) 0,00 %
10.09.2015 07:54 7,4 C 96 % 1021,5 hPa 0,0 l/m 0,7 km/h (0 Bft) O-NO 62 0 min 0,000 mm 0,0 UV-I 33 W/m 6,8 C 7,4 C 4,0 km/h (1 Bft) 0,00 %
10.09.2015 07:59 7,4 C 96 % 1021,7 hPa 0,0 l/m 0,4 km/h (0 Bft) S 174 0 min 0,000 mm 0,0 UV-I 31 W/m 6,8 C 7,4 C 4,0 km/h (1 Bft) 0,00 %
10.09.2015 08:04 7,5 C 95 % 1021,6 hPa 0,0 l/m 0,0 km/h (0 Bft) O 83 0 min 0,000 mm 0,0 UV-I 36 W/m 6,8 C 7,5 C 0,0 km/h (0 Bft) 0,00 %
10.09.2015 08:09 7,6 C 95 % 1021,6 hPa 0,0 l/m 0,0 km/h (0 Bft) NO 51 0 min 0,000 mm 0,0 UV-I 37 W/m 6,9 C 7,6 C 0,0 km/h (0 Bft) 0,00 %
10.09.2015 08:14 7,7 C 95 % 1021,5 hPa 0,0 l/m 0,0 km/h (0 Bft) O-NO 58 0 min 0,000 mm 0,0 UV-I 43 W/m 7,0 C 7,7 C 0,0 km/h (0 Bft) 0,00 %
10.09.2015 08:19 7,8 C 95 % 1021,4 hPa 0,0 l/m 0,7 km/h (0 Bft) O-NO 60 0 min 0,000 mm 0,0 UV-I 50 W/m 7,0 C 7,8 C 4,0 km/h (1 Bft) 0,00 %
10.09.2015 08:24 7,9 C 94 % 1021,3 hPa 0,0 l/m 0,0 km/h (0 Bft) O-NO 63 0 min 0,000 mm 0,0 UV-I 63 W/m 7,0 C 7,9 C 0,0 km/h (0 Bft) 0,00 %
10.09.2015 08:29 7,9 C 94 % 1021,1 hPa 0,0 l/m 0,0 km/h (0 Bft) O-NO 57 0 min 0,000 mm 0,0 UV-I 80 W/m 7,0 C 7,9 C 0,0 km/h (0 Bft) 0,00 %
10.09.2015 08:34 8,1 C 94 % 1021,2 hPa 0,0 l/m 0,0 km/h (0 Bft) O-NO 59 0 min 0,000 mm 0,0 UV-I 79 W/m 7,2 C 8,1 C 0,0 km/h (0 Bft) 0,00 %
10.09.2015 08:39 8,2 C 94 % 1021,0 hPa 0,0 l/m 0,0 km/h (0 Bft) SO 132 0 min 0,000 mm 0,0 UV-I 79 W/m 7,3 C 8,2 C 0,0 km/h (0 Bft) 0,00 %
10.09.2015 08:44 8,3 C 94 % 1021,2 hPa 0,0 l/m 0,7 km/h (0 Bft) NO 55 0 min 0,000 mm 1,0 UV-I 95 W/m 7,4 C 8,3 C 4,0 km/h (1 Bft) 0,00 %
10.09.2015 08:49 8,5 C 94 % 1021,1 hPa 0,0 l/m 0,0 km/h (0 Bft) NO 34 0 min 0,000 mm 1,0 UV-I 109 W/m 7,6 C 8,5 C 0,0 km/h (0 Bft) 0,00 %
10.09.2015 08:54 8,7 C 94 % 1021,0 hPa 0,0 l/m 2,2 km/h (1 Bft) O-NO 66 0 min 0,000 mm 0,0 UV-I 99 W/m 7,8 C 8,7 C 4,0 km/h (1 Bft) 0,00 %
10.09.2015 08:59 8,8 C 92 % 1020,8 hPa 0,0 l/m 0,4 km/h (0 Bft) O-NO 58 0 min 0,000 mm 1,0 UV-I 112 W/m 7,6 C 8,8 C 4,0 km/h (1 Bft) 0,00 %
10.09.2015 09:04 9,0 C 92 % 1020,9 hPa 0,0 l/m 4,3 km/h (1 Bft) O 101 0 min 0,000 mm 1,0 UV-I 118 W/m 7,8 C 9,0 C 7,9 km/h (2 Bft) 0,00 %
10.09.2015 09:09 9,1 C 91 % 1020,8 hPa 0,0 l/m 2,2 km/h (1 Bft) O-NO 69 0 min 0,000 mm 1,0 UV-I 122 W/m 7,7 C 9,1 C 4,0 km/h (1 Bft) 0,00 %
10.09.2015 09:14 9,2 C 91 % 1020,6 hPa 0,0 l/m 8,3 km/h (2 Bft) O 91 0 min 0,000 mm 1,0 UV-I 140 W/m 7,8 C 7,8 C 11,9 km/h (2 Bft) 0,00 %
10.09.2015 09:19 9,2 C 91 % 1020,5 hPa 0,0 l/m 1,8 km/h (1 Bft) O-SO 117 0 min 0,000 mm 1,0 UV-I 183 W/m 7,8 C 9,2 C 4,0 km/h (1 Bft) 0,00 %
10.09.2015 09:24 9,4 C 90 % 1020,6 hPa 0,0 l/m 4,3 km/h (1 Bft) SO 142 0 min 0,000 mm 1,0 UV-I 193 W/m 7,8 C 9,4 C 7,9 km/h (2 Bft) 0,00 %
10.09.2015 09:29 9,6 C 90 % 1020,4 hPa 0,0 l/m 5,4 km/h (1 Bft) O 99 0 min 0,000 mm 1,0 UV-I 192 W/m 8,0 C 9,6 C 11,9 km/h (2 Bft) 0,00 %
10.09.2015 09:34 9,8 C 88 % 1020,1 hPa 0,0 l/m 4,0 km/h (1 Bft) O-SO 104 5 min 0,000 mm 1,0 UV-I 268 W/m 7,9 C 9,8 C 7,9 km/h (2 Bft) 0,00 %
10.09.2015 09:39 10,1 C 86 % 1020,3 hPa 0,0 l/m 4,3 km/h (1 Bft) O 83 0 min 0,000 mm 1,0 UV-I 191 W/m 7,9 C 10,1 C 11,9 km/h (2 Bft) 0,00 %
10.09.2015 09:44 10,3 C 84 % 1020,2 hPa 0,0 l/m 4,0 km/h (1 Bft) O 84 0 min 0,000 mm 1,0 UV-I 178 W/m 7,7 C 10,3 C 4,0 km/h (1 Bft) 0,00 %
10.09.2015 09:49 10,3 C 84 % 1020,2 hPa 0,0 l/m 1,8 km/h (1 Bft) O-NO 67 0 min 0,000 mm 1,0 UV-I 201 W/m 7,7 C 10,3 C 4,0 km/h (1 Bft) 0,00 %
10.09.2015 09:54 10,3 C 84 % 1020,1 hPa 0,0 l/m 0,7 km/h (0 Bft) N 357 0 min 0,000 mm 1,0 UV-I 187 W/m 7,7 C 10,3 C 4,0 km/h (1 Bft) 0,00 %
10.09.2015 09:59 10,4 C 83 % 1019,9 hPa 0,0 l/m 2,9 km/h (1 Bft) O-NO 73 0 min 0,000 mm 1,0 UV-I 208 W/m 7,6 C 10,4 C 4,0 km/h (1 Bft) 0,00 %
10.09.2015 10:04 10,6 C 83 % 1019,8 hPa 0,0 l/m 0,0 km/h (0 Bft) N 349 0 min 0,000 mm 1,0 UV-I 225 W/m 7,8 C 10,6 C 0,0 km/h (0 Bft) 0,00 %
10.09.2015 10:10 10,8 C 81 % 1019,8 hPa 0,0 l/m 1,4 km/h (1 Bft) NO 49 0 min 0,000 mm 1,0 UV-I 199 W/m 7,7 C 10,8 C 4,0 km/h (1 Bft) 0,00 %
10.09.2015 10:15 11,0 C 80 % 1019,8 hPa 0,0 l/m 0,0 km/h (0 Bft) O-SO 104 0 min 0,000 mm 1,0 UV-I 197 W/m 7,7 C 11,0 C 0,0 km/h (0 Bft) 0,00 %
10.09.2015 10:20 11,1 C 79 % 1019,7 hPa 0,0 l/m 11,5 km/h (2 Bft) NO 55 0 min 0,000 mm 1,0 UV-I 233 W/m 7,6 C 8,0 C 15,8 km/h (3 Bft) 0,00 %
10.09.2015 10:25 11,1 C 80 % 1020,8 hPa 0,0 l/m 0,0 km/h (0 Bft) NO 53 0 min 0,000 mm 2,0 UV-I 260 W/m 7,8 C 11,1 C 0,0 km/h (0 Bft) 0,00 %
10.09.2015 10:30 11,4 C 79 % 1020,8 hPa 0,0 l/m 3,2 km/h (1 Bft) O 99 0 min 0,000 mm 1,0 UV-I 228 W/m 7,9 C 11,4 C 4,0 km/h (1 Bft) 0,00 %
10.09.2015 10:35 11,7 C 78 % 1020,7 hPa 0,0 l/m 2,9 km/h (1 Bft) O 83 5 min 0,000 mm 2,0 UV-I 404 W/m 8,0 C 11,7 C 4,0 km/h (1 Bft) 0,00 %
10.09.2015 10:40 12,0 C 78 % 1020,8 hPa 0,0 l/m 7,9 km/h (2 Bft) O-NO 71 5 min 0,000 mm 2,0 UV-I 427 W/m 8,3 C 11,0 C 11,9 km/h (2 Bft) 0,00 %
10.09.2015 10:45 12,5 C 74 % 1020,6 hPa 0,0 l/m 6,8 km/h (2 Bft) O 90 5 min 0,000 mm 2,0 UV-I 422 W/m 8,0 C 12,2 C 11,9 km/h (2 Bft) 0,00 %
10.09.2015 10:50 12,9 C 73 % 1020,5 hPa 0,0 l/m 11,5 km/h (2 Bft) S 178 0 min 0,000 mm 2,0 UV-I 323 W/m 8,2 C 10,1 C 15,8 km/h (3 Bft) 0,00 %
10.09.2015 10:55 13,0 C 73 % 1020,5 hPa 0,0 l/m 1,8 km/h (1 Bft) N-NO 30 5 min 0,000 mm 2,0 UV-I 437 W/m 8,3 C 13,0 C 4,0 km/h (1 Bft) 0,00 %
10.09.2015 11:00 13,5 C 70 % 1020,6 hPa 0,0 l/m 6,8 km/h (2 Bft) S 173 0 min 0,000 mm 2,0 UV-I 297 W/m 8,1 C 13,3 C 7,9 km/h (2 Bft) 0,00 %
10.09.2015 11:05 13,9 C 71 % 1020,3 hPa 0,0 l/m 11,9 km/h (2 Bft) SO 145 0 min 0,000 mm 2,0 UV-I 281 W/m 8,7 C 11,0 C 15,8 km/h (3 Bft) 0,00 %
10.09.2015 11:10 13,7 C 70 % 1020,3 hPa 0,0 l/m 9,7 km/h (2 Bft) O 89 5 min 0,000 mm 2,0 UV-I 478 W/m 8,3 C 11,8 C 11,9 km/h (2 Bft) 0,00 %
10.09.2015 11:15 13,6 C 71 % 1020,3 hPa 0,0 l/m 10,8 km/h (2 Bft) SO 139 0 min 0,000 mm 2,0 UV-I 361 W/m 8,4 C 11,2 C 11,9 km/h (2 Bft) 0,00 %
10.09.2015 11:20 13,6 C 70 % 1020,4 hPa 0,0 l/m 9,7 km/h (2 Bft) O-NO 70 0 min 0,000 mm 2,0 UV-I 294 W/m 8,2 C 11,7 C 11,9 km/h (2 Bft) 0,00 %
10.09.2015 11:25 13,9 C 69 % 1020,3 hPa 0,0 l/m 0,0 km/h (0 Bft) NO 37 0 min 0,000 mm 2,0 UV-I 295 W/m 8,3 C 13,9 C 0,0 km/h (0 Bft) 0,00 %
10.09.2015 11:30 14,3 C 67 % 1020,5 hPa 0,0 l/m 4,3 km/h (1 Bft) O-SO 113 0 min 0,000 mm 2,0 UV-I 318 W/m 8,3 C 14,3 C 7,9 km/h (2 Bft) 0,00 %
10.09.2015 11:35 14,3 C 67 % 1020,4 hPa 0,0 l/m 11,9 km/h (2 Bft) O-NO 69 0 min 0,000 mm 2,0 UV-I 307 W/m 8,3 C 11,5 C 24,1 km/h (4 Bft) 0,00 %
10.09.2015 11:40 14,1 C 67 % 1020,3 hPa 0,0 l/m 10,8 km/h (2 Bft) SO 129 5 min 0,000 mm 2,0 UV-I 576 W/m 8,1 C 11,8 C 15,8 km/h (3 Bft) 0,00 %
10.09.2015 11:45 14,2 C 67 % 1020,4 hPa 0,0 l/m 5,8 km/h (2 Bft) S 179 0 min 0,000 mm 2,0 UV-I 213 W/m 8,2 C 14,2 C 7,9 km/h (2 Bft) 0,00 %
10.09.2015 11:50 14,1 C 68 % 1020,5 hPa 0,0 l/m 7,9 km/h (2 Bft) N-NO 24 0 min 0,000 mm 2,0 UV-I 278 W/m 8,3 C 13,2 C 11,9 km/h (2 Bft) 0,00 %
10.09.2015 11:55 14,1 C 68 % 1020,5 hPa 0,0 l/m 2,9 km/h (1 Bft) O-NO 77 5 min 0,000 mm 2,0 UV-I 582 W/m 8,3 C 14,1 C 4,0 km/h (1 Bft) 0,00 %
10.09.2015 12:00 14,5 C 64 % 1020,2 hPa 0,0 l/m 7,2 km/h (2 Bft) O-SO 110 5 min 0,000 mm 2,0 UV-I 591 W/m 7,8 C 14,0 C 15,8 km/h (3 Bft) 0,00 %
10.09.2015 12:05 14,9 C 64 % 1020,1 hPa 0,0 l/m 13,3 km/h (3 Bft) O-SO 116 5 min 0,000 mm 2,0 UV-I 590 W/m 8,2 C 11,7 C 19,8 km/h (3 Bft) 0,00 %
10.09.2015 12:10 15,1 C 62 % 1020,2 hPa 0,0 l/m 4,7 km/h (1 Bft) O-NO 62 5 min 0,000 mm 3,0 UV-I 623 W/m 7,9 C 15,1 C 7,9 km/h (2 Bft) 0,00 %
10.09.2015 12:15 15,2 C 63 % 1020,0 hPa 0,0 l/m 14,4 km/h (3 Bft) O-SO 120 5 min 0,000 mm 3,0 UV-I 639 W/m 8,2 C 11,6 C 15,8 km/h (3 Bft) 0,00 %
10.09.2015 12:20 15,3 C 63 % 1020,0 hPa 0,0 l/m 15,5 km/h (3 Bft) SO 129 5 min 0,000 mm 3,0 UV-I 631 W/m 8,3 C 11,4 C 24,1 km/h (4 Bft) 0,00 %
10.09.2015 12:25 15,4 C 62 % 1019,9 hPa 0,0 l/m 7,9 km/h (2 Bft) O 87 5 min 0,000 mm 3,0 UV-I 626 W/m 8,2 C 14,6 C 11,9 km/h (2 Bft) 0,00 %
10.09.2015 12:30 15,6 C 62 % 1019,7 hPa 0,0 l/m 13,3 km/h (3 Bft) O-SO 103 5 min 0,000 mm 3,0 UV-I 657 W/m 8,3 C 12,5 C 19,8 km/h (3 Bft) 0,00 %
10.09.2015 12:35 15,7 C 62 % 1019,8 hPa 0,0 l/m 4,0 km/h (1 Bft) O 96 5 min 0,000 mm 3,0 UV-I 771 W/m 8,4 C 15,7 C 7,9 km/h (2 Bft) 0,00 %
10.09.2015 12:40 15,7 C 61 % 1019,7 hPa 0,0 l/m 4,7 km/h (1 Bft) SO 128 5 min 0,000 mm 3,0 UV-I 805 W/m 8,2 C 15,7 C 7,9 km/h (2 Bft) 0,00 %
10.09.2015 12:45 15,7 C 62 % 1019,8 hPa 0,0 l/m 5,4 km/h (1 Bft) O-NO 76 5 min 0,000 mm 3,0 UV-I 746 W/m 8,4 C 15,7 C 7,9 km/h (2 Bft) 0,00 %
10.09.2015 12:50 15,7 C 60 % 1019,7 hPa 0,0 l/m 15,5 km/h (3 Bft) O-SO 110 5 min 0,000 mm 3,0 UV-I 704 W/m 8,0 C 11,9 C 24,1 km/h (4 Bft) 0,00 %
10.09.2015 12:55 15,9 C 61 % 1019,7 hPa 0,0 l/m 13,0 km/h (3 Bft) O-SO 106 5 min 0,000 mm 3,0 UV-I 660 W/m 8,4 C 12,9 C 19,8 km/h (3 Bft) 0,00 %
10.09.2015 13:00 15,9 C 59 % 1019,8 hPa 0,0 l/m 4,7 km/h (1 Bft) O-SO 104 5 min 0,000 mm 3,0 UV-I 715 W/m 7,9 C 15,9 C 7,9 km/h (2 Bft) 0,00 %
10.09.2015 13:05 16,1 C 59 % 1019,7 hPa 0,0 l/m 7,9 km/h (2 Bft) S 178 5 min 0,000 mm 3,0 UV-I 737 W/m 8,1 C 15,3 C 11,9 km/h (2 Bft) 0,00 %
10.09.2015 13:10 16,4 C 58 % 1019,5 hPa 0,0 l/m 4,3 km/h (1 Bft) N 352 5 min 0,000 mm 3,0 UV-I 693 W/m 8,1 C 16,4 C 11,9 km/h (2 Bft) 0,00 %
10.09.2015 13:15 16,5 C 58 % 1019,5 hPa 0,0 l/m 5,4 km/h (1 Bft) O 88 5 min 0,000 mm 3,0 UV-I 670 W/m 8,2 C 16,5 C 7,9 km/h (2 Bft) 0,00 %
10.09.2015 13:20 16,5 C 58 % 1019,5 hPa 0,0 l/m 6,8 km/h (2 Bft) O-NO 78 5 min 0,000 mm 3,0 UV-I 673 W/m 8,2 C 16,3 C 11,9 km/h (2 Bft) 0,00 %
10.09.2015 13:25 16,6 C 58 % 1019,6 hPa 0,0 l/m 0,7 km/h (0 Bft) NO 49 5 min 0,000 mm 3,0 UV-I 688 W/m 8,3 C 16,6 C 4,0 km/h (1 Bft) 0,00 %
10.09.2015 13:30 16,7 C 57 % 1019,4 hPa 0,0 l/m 11,5 km/h (2 Bft) O-SO 122 5 min 0,000 mm 3,0 UV-I 692 W/m 8,1 C 14,4 C 15,8 km/h (3 Bft) 0,00 %
10.09.2015 13:35 16,8 C 55 % 1019,5 hPa 0,0 l/m 6,5 km/h (2 Bft) O 89 5 min 0,000 mm 3,0 UV-I 691 W/m 7,7 C 16,8 C 7,9 km/h (2 Bft) 0,00 %
10.09.2015 13:40 16,8 C 55 % 1019,2 hPa 0,0 l/m 1,4 km/h (1 Bft) O 85 5 min 0,000 mm 3,0 UV-I 687 W/m 7,7 C 16,8 C 4,0 km/h (1 Bft) 0,00 %
10.09.2015 13:45 16,9 C 54 % 1019,4 hPa 0,0 l/m 6,8 km/h (2 Bft) O 92 0 min 0,000 mm 2,0 UV-I 292 W/m 7,5 C 16,7 C 7,9 km/h (2 Bft) 0,00 %
10.09.2015 13:50 17,2 C 54 % 1019,3 hPa 0,0 l/m 4,0 km/h (1 Bft) SO 137 0 min 0,000 mm 2,0 UV-I 257 W/m 7,8 C 17,2 C 7,9 km/h (2 Bft) 0,00 %
10.09.2015 13:55 17,2 C 53 % 1019,3 hPa 0,0 l/m 4,7 km/h (1 Bft) O-SO 104 5 min 0,000 mm 3,0 UV-I 717 W/m 7,5 C 17,2 C 7,9 km/h (2 Bft) 0,00 %
10.09.2015 14:00 17,2 C 53 % 1019,1 hPa 0,0 l/m 8,3 km/h (2 Bft) O-SO 119 5 min 0,000 mm 3,0 UV-I 731 W/m 7,5 C 16,3 C 15,8 km/h (3 Bft) 0,00 %
10.09.2015 14:05 17,2 C 53 % 1019,2 hPa 0,0 l/m 13,3 km/h (3 Bft) O-NO 73 0 min 0,000 mm 2,0 UV-I 246 W/m 7,5 C 14,4 C 24,1 km/h (4 Bft) 0,00 %
10.09.2015 14:10 17,2 C 53 % 1019,0 hPa 0,0 l/m 2,2 km/h (1 Bft) NO 46 5 min 0,000 mm 3,0 UV-I 795 W/m 7,5 C 17,2 C 4,0 km/h (1 Bft) 0,00 %
10.09.2015 14:15 17,3 C 52 % 1019,0 hPa 0,0 l/m 14,8 km/h (3 Bft) S 173 5 min 0,000 mm 3,0 UV-I 758 W/m 7,3 C 14,0 C 19,8 km/h (3 Bft) 0,00 %
10.09.2015 14:20 17,4 C 52 % 1019,1 hPa 0,0 l/m 5,8 km/h (2 Bft) O-SO 102 5 min 0,000 mm 2,0 UV-I 790 W/m 7,4 C 17,4 C 11,9 km/h (2 Bft) 0,00 %
10.09.2015 14:25 17,5 C 52 % 1019,1 hPa 0,0 l/m 11,9 km/h (2 Bft) O 99 0 min 0,000 mm 1,0 UV-I 241 W/m 7,5 C 15,2 C 15,8 km/h (3 Bft) 0,00 %
10.09.2015 14:30 17,4 C 54 % 1019,0 hPa 0,0 l/m 0,7 km/h (0 Bft) S-SW 200 0 min 0,000 mm 1,0 UV-I 215 W/m 8,0 C 17,4 C 4,0 km/h (1 Bft) 0,00 %
10.09.2015 14:35 17,1 C 53 % 1019,0 hPa 0,0 l/m 10,4 km/h (2 Bft) SO 127 5 min 0,000 mm 2,0 UV-I 731 W/m 7,4 C 15,3 C 15,8 km/h (3 Bft) 0,00 %
10.09.2015 14:40 17,1 C 54 % 1018,9 hPa 0,0 l/m 10,8 km/h (2 Bft) S 179 5 min 0,000 mm 2,0 UV-I 724 W/m 7,7 C 15,1 C 11,9 km/h (2 Bft) 0,00 %
10.09.2015 14:45 17,0 C 54 % 1018,8 hPa 0,0 l/m 5,4 km/h (1 Bft) O-SO 108 0 min 0,000 mm 1,0 UV-I 221 W/m 7,6 C 17,0 C 7,9 km/h (2 Bft) 0,00 %
10.09.2015 14:50 17,0 C 53 % 1019,0 hPa 0,0 l/m 8,3 km/h (2 Bft) O-SO 109 5 min 0,000 mm 1,0 UV-I 738 W/m 7,4 C 16,1 C 11,9 km/h (2 Bft) 0,00 %
10.09.2015 14:55 16,9 C 55 % 1018,8 hPa 0,0 l/m 7,2 km/h (2 Bft) NO 41 5 min 0,000 mm 1,0 UV-I 727 W/m 7,8 C 16,5 C 11,9 km/h (2 Bft) 0,00 %
10.09.2015 15:00 16,7 C 54 % 1018,4 hPa 0,0 l/m 9,0 km/h (2 Bft) O 94 5 min 0,000 mm 1,0 UV-I 705 W/m 7,3 C 15,4 C 15,8 km/h (3 Bft) 0,00 %
10.09.2015 15:05 16,6 C 54 % 1018,3 hPa 0,0 l/m 7,9 km/h (2 Bft) S-SO 147 0 min 0,000 mm 1,0 UV-I 344 W/m 7,3 C 15,8 C 11,9 km/h (2 Bft) 0,00 %
10.09.2015 15:10 16,6 C 52 % 1018,6 hPa 0,0 l/m 9,4 km/h (2 Bft) S 179 0 min 0,000 mm 1,0 UV-I 165 W/m 6,7 C 15,1 C 15,8 km/h (3 Bft) 0,00 %
10.09.2015 15:15 16,5 C 51 % 1018,4 hPa 0,0 l/m 10,8 km/h (2 Bft) SO 124 0 min 0,000 mm 1,0 UV-I 165 W/m 6,3 C 14,5 C 11,9 km/h (2 Bft) 0,00 %
10.09.2015 15:20 16,5 C 50 % 1018,5 hPa 0,0 l/m 12,2 km/h (2 Bft) S 172 0 min 0,000 mm 1,0 UV-I 166 W/m 6,0 C 13,9 C 19,8 km/h (3 Bft) 0,00 %
10.09.2015 15:25 16,6 C 50 % 1018,4 hPa 0,0 l/m 11,9 km/h (2 Bft) O-SO 105 0 min 0,000 mm 1,0 UV-I 167 W/m 6,1 C 14,2 C 19,8 km/h (3 Bft) 0,00 %
10.09.2015 15:30 16,6 C 49 % 1018,3 hPa 0,0 l/m 4,7 km/h (1 Bft) O-SO 102 0 min 0,000 mm 1,0 UV-I 175 W/m 5,8 C 16,6 C 7,9 km/h (2 Bft) 0,00 %
10.09.2015 15:35 16,7 C 49 % 1018,6 hPa 0,0 l/m 6,5 km/h (2 Bft) O 99 0 min 0,000 mm 1,0 UV-I 193 W/m 5,9 C 16,7 C 7,9 km/h (2 Bft) 0,00 %
10.09.2015 15:40 16,8 C 49 % 1018,6 hPa 0,0 l/m 6,8 km/h (2 Bft) S 181 0 min 0,000 mm 1,0 UV-I 203 W/m 6,0 C 16,6 C 7,9 km/h (2 Bft) 0,00 %
10.09.2015 15:45 17,0 C 45 % 1018,7 hPa 0,0 l/m 6,8 km/h (2 Bft) S 175 0 min 0,000 mm 1,0 UV-I 198 W/m 5,0 C 16,8 C 11,9 km/h (2 Bft) 0,00 %
10.09.2015 15:50 17,1 C 46 % 1018,3 hPa 0,0 l/m 10,8 km/h (2 Bft) O-SO 123 0 min 0,000 mm 1,0 UV-I 191 W/m 5,4 C 15,1 C 11,9 km/h (2 Bft) 0,00 %
10.09.2015 15:55 17,0 C 49 % 1018,4 hPa 0,0 l/m 6,8 km/h (2 Bft) O-NO 63 0 min 0,000 mm 1,0 UV-I 177 W/m 6,2 C 16,8 C 11,9 km/h (2 Bft) 0,00 %
10.09.2015 16:00 17,0 C 49 % 1018,4 hPa 0,0 l/m 4,7 km/h (1 Bft) NO 50 0 min 0,000 mm 1,0 UV-I 182 W/m 6,2 C 17,0 C 7,9 km/h (2 Bft) 0,00 %
10.09.2015 16:05 16,9 C 50 % 1018,4 hPa 0,0 l/m 3,2 km/h (1 Bft) N 353 0 min 0,000 mm 1,0 UV-I 193 W/m 6,4 C 16,9 C 7,9 km/h (2 Bft) 0,00 %
10.09.2015 16:10 16,7 C 53 % 1018,4 hPa 0,0 l/m 9,4 km/h (2 Bft) S 182 0 min 0,000 mm 1,0 UV-I 205 W/m 7,1 C 15,2 C 11,9 km/h (2 Bft) 0,00 %
10.09.2015 16:15 16,7 C 53 % 1018,4 hPa 0,0 l/m 18,0 km/h (3 Bft) N 355 0 min 0,000 mm 1,0 UV-I 208 W/m 7,1 C 12,4 C 19,8 km/h (3 Bft) 0,00 %
10.09.2015 16:20 16,4 C 53 % 1018,5 hPa 0,0 l/m 4,3 km/h (1 Bft) SO 138 0 min 0,000 mm 1,0 UV-I 183 W/m 6,8 C 16,4 C 7,9 km/h (2 Bft) 0,00 %
10.09.2015 16:25 16,1 C 54 % 1018,4 hPa 0,0 l/m 14,0 km/h (3 Bft) O 99 0 min 0,000 mm 1,0 UV-I 165 W/m 6,8 C 12,8 C 24,1 km/h (4 Bft) 0,00 %
10.09.2015 16:30 16,0 C 53 % 1018,4 hPa 0,0 l/m 9,0 km/h (2 Bft) SO 129 0 min 0,000 mm 1,0 UV-I 152 W/m 6,4 C 14,7 C 11,9 km/h (2 Bft) 0,00 %
10.09.2015 16:35 16,0 C 53 % 1018,3 hPa 0,0 l/m 11,9 km/h (2 Bft) S 178 0 min 0,000 mm 1,0 UV-I 150 W/m 6,4 C 13,5 C 19,8 km/h (3 Bft) 0,00 %
10.09.2015 16:40 16,1 C 53 % 1018,1 hPa 0,0 l/m 11,5 km/h (2 Bft) NW 307 0 min 0,000 mm 1,0 UV-I 153 W/m 6,5 C 13,7 C 15,8 km/h (3 Bft) 0,00 %
10.09.2015 16:45 16,1 C 54 % 1018,3 hPa 0,0 l/m 9,4 km/h (2 Bft) O 98 0 min 0,000 mm 1,0 UV-I 165 W/m 6,8 C 14,6 C 15,8 km/h (3 Bft) 0,00 %
10.09.2015 16:50 16,0 C 54 % 1018,2 hPa 0,0 l/m 10,4 km/h (2 Bft) O-SO 118 0 min 0,000 mm 1,0 UV-I 165 W/m 6,7 C 14,1 C 15,8 km/h (3 Bft) 0,00 %
10.09.2015 16:55 16,0 C 52 % 1018,0 hPa 0,0 l/m 7,2 km/h (2 Bft) NW 318 5 min 0,000 mm 1,0 UV-I 315 W/m 6,2 C 15,6 C 11,9 km/h (2 Bft) 0,00 %
10.09.2015 17:00 16,1 C 56 % 1018,1 hPa 0,0 l/m 4,0 km/h (1 Bft) O-SO 106 5 min 0,000 mm 1,0 UV-I 603 W/m 7,3 C 16,1 C 7,9 km/h (2 Bft) 0,00 %
10.09.2015 17:05 16,2 C 53 % 1018,1 hPa 0,0 l/m 11,5 km/h (2 Bft) O-SO 109 5 min 0,000 mm 1,0 UV-I 581 W/m 6,6 C 13,8 C 15,8 km/h (3 Bft) 0,00 %
10.09.2015 17:10 16,4 C 52 % 1018,1 hPa 0,0 l/m 1,4 km/h (1 Bft) O-NO 63 5 min 0,000 mm 1,0 UV-I 551 W/m 6,5 C 16,4 C 4,0 km/h (1 Bft) 0,00 %
10.09.2015 17:15 16,4 C 51 % 1018,1 hPa 0,0 l/m 6,8 km/h (2 Bft) O-SO 108 5 min 0,000 mm 1,0 UV-I 581 W/m 6,2 C 16,2 C 15,8 km/h (3 Bft) 0,00 %
10.09.2015 17:20 16,4 C 52 % 1017,9 hPa 0,0 l/m 9,4 km/h (2 Bft) NO 48 5 min 0,000 mm 1,0 UV-I 570 W/m 6,5 C 14,9 C 15,8 km/h (3 Bft) 0,00 %
10.09.2015 17:25 16,4 C 52 % 1017,9 hPa 0,0 l/m 11,5 km/h (2 Bft) O 95 5 min 0,000 mm 1,0 UV-I 555 W/m 6,5 C 14,1 C 15,8 km/h (3 Bft) 0,00 %
10.09.2015 17:30 16,3 C 52 % 1017,9 hPa 0,0 l/m 16,6 km/h (3 Bft) O 98 5 min 0,000 mm 1,0 UV-I 420 W/m 6,4 C 12,3 C 19,8 km/h (3 Bft) 0,00 %
10.09.2015 17:35 16,2 C 52 % 1017,9 hPa 0,0 l/m 0,7 km/h (0 Bft) NO 42 0 min 0,000 mm 1,0 UV-I 143 W/m 6,3 C 16,2 C 4,0 km/h (1 Bft) 0,00 %
10.09.2015 17:40 16,1 C 55 % 1017,9 hPa 0,0 l/m 10,4 km/h (2 Bft) O 80 0 min 0,000 mm 1,0 UV-I 155 W/m 7,1 C 14,2 C 15,8 km/h (3 Bft) 0,00 %
10.09.2015 17:45 15,8 C 55 % 1018,0 hPa 0,0 l/m 1,8 km/h (1 Bft) O-SO 103 0 min 0,000 mm 1,0 UV-I 122 W/m 6,8 C 15,8 C 4,0 km/h (1 Bft) 0,00 %
10.09.2015 17:50 15,5 C 57 % 1018,0 hPa 0,0 l/m 4,0 km/h (1 Bft) W 279 0 min 0,000 mm 1,0 UV-I 114 W/m 7,0 C 15,5 C 7,9 km/h (2 Bft) 0,00 %
10.09.2015 17:55 15,4 C 57 % 1017,9 hPa 0,0 l/m 2,9 km/h (1 Bft) SO 145 0 min 0,000 mm 1,0 UV-I 116 W/m 6,9 C 15,4 C 4,0 km/h (1 Bft) 0,00 %
10.09.2015 18:00 15,3 C 58 % 1017,8 hPa 0,0 l/m 3,2 km/h (1 Bft) O 91 0 min 0,000 mm 1,0 UV-I 118 W/m 7,1 C 15,3 C 7,9 km/h (2 Bft) 0,00 %
10.09.2015 18:05 15,2 C 59 % 1017,9 hPa 0,0 l/m 1,4 km/h (1 Bft) O-NO 78 0 min 0,000 mm 0,0 UV-I 105 W/m 7,2 C 15,2 C 4,0 km/h (1 Bft) 0,00 %
10.09.2015 18:10 15,1 C 59 % 1017,8 hPa 0,0 l/m 7,9 km/h (2 Bft) O-SO 114 0 min 0,000 mm 0,0 UV-I 104 W/m 7,1 C 14,3 C 11,9 km/h (2 Bft) 0,00 %
10.09.2015 18:15 15,1 C 59 % 1017,8 hPa 0,0 l/m 1,8 km/h (1 Bft) O 83 0 min 0,000 mm 0,0 UV-I 105 W/m 7,1 C 15,1 C 7,9 km/h (2 Bft) 0,00 %
10.09.2015 18:20 15,0 C 58 % 1017,4 hPa 0,0 l/m 5,4 km/h (1 Bft) O-NO 76 5 min 0,000 mm 0,0 UV-I 230 W/m 6,8 C 15,0 C 11,9 km/h (2 Bft) 0,00 %
10.09.2015 18:25 15,0 C 57 % 1017,6 hPa 0,0 l/m 9,0 km/h (2 Bft) O-NO 75 5 min 0,000 mm 0,0 UV-I 322 W/m 6,6 C 13,6 C 11,9 km/h (2 Bft) 0,00 %
10.09.2015 18:30 15,2 C 59 % 1017,5 hPa 0,0 l/m 6,5 km/h (2 Bft) S-SO 150 5 min 0,000 mm 0,0 UV-I 114 W/m 7,2 C 15,2 C 11,9 km/h (2 Bft) 0,00 %
10.09.2015 18:35 15,2 C 58 % 1017,8 hPa 0,0 l/m 4,7 km/h (1 Bft) O-SO 123 5 min 0,000 mm 0,0 UV-I 183 W/m 7,0 C 15,2 C 7,9 km/h (2 Bft) 0,00 %
10.09.2015 18:40 15,2 C 59 % 1017,7 hPa 0,0 l/m 4,7 km/h (1 Bft) O-NO 57 5 min 0,000 mm 0,0 UV-I 230 W/m 7,2 C 15,2 C 7,9 km/h (2 Bft) 0,00 %
10.09.2015 18:45 15,2 C 59 % 1017,8 hPa 0,0 l/m 2,9 km/h (1 Bft) O 91 5 min 0,000 mm 0,0 UV-I 204 W/m 7,2 C 15,2 C 7,9 km/h (2 Bft) 0,00 %
10.09.2015 18:50 15,2 C 58 % 1017,7 hPa 0,0 l/m 7,9 km/h (2 Bft) O-SO 119 5 min 0,000 mm 0,0 UV-I 173 W/m 7,0 C 14,4 C 11,9 km/h (2 Bft) 0,00 %
10.09.2015 18:55 15,2 C 58 % 1017,8 hPa 0,0 l/m 5,4 km/h (1 Bft) O-SO 102 5 min 0,000 mm 0,0 UV-I 139 W/m 7,0 C 15,2 C 11,9 km/h (2 Bft) 0,00 %
10.09.2015 19:00 15,2 C 57 % 1017,8 hPa 0,0 l/m 9,7 km/h (2 Bft) SO 134 5 min 0,000 mm 0,0 UV-I 105 W/m 6,7 C 13,5 C 11,9 km/h (2 Bft) 0,00 %
10.09.2015 19:05 15,1 C 58 % 1017,7 hPa 0,0 l/m 2,9 km/h (1 Bft) SO 128 5 min 0,000 mm 0,0 UV-I 53 W/m 6,9 C 15,1 C 4,0 km/h (1 Bft) 0,00 %
10.09.2015 19:10 15,0 C 60 % 1017,7 hPa 0,0 l/m 5,8 km/h (2 Bft) NO 45 5 min 0,000 mm 0,0 UV-I 30 W/m 7,3 C 15,0 C 7,9 km/h (2 Bft) 0,00 %
10.09.2015 19:15 14,7 C 61 % 1017,8 hPa 0,0 l/m 0,4 km/h (0 Bft) O-NO 61 5 min 0,000 mm 0,0 UV-I 20 W/m 7,3 C 14,7 C 4,0 km/h (1 Bft) 0,00 %
10.09.2015 19:20 14,5 C 60 % 1017,6 hPa 0,0 l/m 6,8 km/h (2 Bft) SO 139 0 min 0,000 mm 0,0 UV-I 8 W/m 6,8 C 14,3 C 7,9 km/h (2 Bft) 0,00 %
10.09.2015 19:25 14,3 C 61 % 1017,8 hPa 0,0 l/m 4,3 km/h (1 Bft) NO 55 0 min 0,000 mm 0,0 UV-I 2 W/m 6,9 C 14,3 C 7,9 km/h (2 Bft) 0,00 %
10.09.2015 19:30 14,1 C 62 % 1017,9 hPa 0,0 l/m 2,9 km/h (1 Bft) O-SO 110 0 min 0,000 mm 0,0 UV-I 0 W/m 6,9 C 14,1 C 7,9 km/h (2 Bft) 0,00 %
10.09.2015 19:35 14,0 C 63 % 1017,9 hPa 0,0 l/m 7,2 km/h (2 Bft) O-SO 105 0 min 0,000 mm 0,0 UV-I 0 W/m 7,1 C 13,5 C 11,9 km/h (2 Bft) 0,00 %
10.09.2015 19:40 13,8 C 64 % 1018,0 hPa 0,0 l/m 4,7 km/h (1 Bft) O 86 0 min 0,000 mm 0,0 UV-I 0 W/m 7,1 C 13,8 C 7,9 km/h (2 Bft) 0,00 %
10.09.2015 19:45 13,6 C 65 % 1018,1 hPa 0,0 l/m 1,8 km/h (1 Bft) O-NO 77 0 min 0,000 mm 0,0 UV-I 0 W/m 7,1 C 13,6 C 4,0 km/h (1 Bft) 0,00 %
10.09.2015 19:50 13,3 C 66 % 1018,2 hPa 0,0 l/m 0,0 km/h (0 Bft) O 101 0 min 0,000 mm 0,0 UV-I 0 W/m 7,1 C 13,3 C 0,0 km/h (0 Bft) 0,00 %
10.09.2015 19:55 13,1 C 68 % 1018,2 hPa 0,0 l/m 0,0 km/h (0 Bft) NO 47 0 min 0,000 mm 0,0 UV-I 0 W/m 7,3 C 13,1 C 0,0 km/h (0 Bft) 0,00 %
10.09.2015 20:00 12,7 C 69 % 1018,1 hPa 0,0 l/m 1,4 km/h (1 Bft) O-NO 58 0 min 0,000 mm 0,0 UV-I 0 W/m 7,2 C 12,7 C 4,0 km/h (1 Bft) 0,00 %
10.09.2015 20:05 12,6 C 70 % 1018,3 hPa 0,0 l/m 0,0 km/h (0 Bft) O-SO 110 0 min 0,000 mm 0,0 UV-I 0 W/m 7,3 C 12,6 C 0,0 km/h (0 Bft) 0,00 %
10.09.2015 20:10 12,4 C 70 % 1018,2 hPa 0,0 l/m 0,4 km/h (0 Bft) O-SO 108 0 min 0,000 mm 0,0 UV-I 0 W/m 7,1 C 12,4 C 4,0 km/h (1 Bft) 0,00 %
10.09.2015 20:15 12,4 C 71 % 1018,3 hPa 0,0 l/m 0,0 km/h (0 Bft) O 79 0 min 0,000 mm 0,0 UV-I 0 W/m 7,3 C 12,4 C 0,0 km/h (0 Bft) 0,00 %
10.09.2015 20:20 12,3 C 71 % 1018,3 hPa 0,0 l/m 0,4 km/h (0 Bft) N-NW 331 0 min 0,000 mm 0,0 UV-I 0 W/m 7,2 C 12,3 C 4,0 km/h (1 Bft) 0,00 %
10.09.2015 20:25 12,1 C 71 % 1018,4 hPa 0,0 l/m 1,8 km/h (1 Bft) O 91 0 min 0,000 mm 0,0 UV-I 0 W/m 7,0 C 12,1 C 4,0 km/h (1 Bft) 0,00 %
10.09.2015 20:30 12,1 C 71 % 1018,5 hPa 0,0 l/m 0,0 km/h (0 Bft) O-NO 77 0 min 0,000 mm 0,0 UV-I 0 W/m 7,0 C 12,1 C 0,0 km/h (0 Bft) 0,00 %
10.09.2015 20:35 12,1 C 70 % 1018,4 hPa 0,0 l/m 1,8 km/h (1 Bft) O-SO 104 0 min 0,000 mm 0,0 UV-I 0 W/m 6,8 C 12,1 C 4,0 km/h (1 Bft) 0,00 %
10.09.2015 20:40 12,1 C 70 % 1018,4 hPa 0,0 l/m 0,4 km/h (0 Bft) N 351 0 min 0,000 mm 0,0 UV-I 0 W/m 6,8 C 12,1 C 4,0 km/h (1 Bft) 0,00 %
10.09.2015 20:45 12,2 C 70 % 1018,5 hPa 0,0 l/m 1,4 km/h (1 Bft) W-SW 256 0 min 0,000 mm 0,0 UV-I 0 W/m 6,9 C 12,2 C 4,0 km/h (1 Bft) 0,00 %
10.09.2015 20:50 12,1 C 71 % 1018,6 hPa 0,0 l/m 2,2 km/h (1 Bft) O 81 0 min 0,000 mm 0,0 UV-I 0 W/m 7,0 C 12,1 C 4,0 km/h (1 Bft) 0,00 %
10.09.2015 20:55 12,0 C 71 % 1018,4 hPa 0,0 l/m 2,2 km/h (1 Bft) O 82 0 min 0,000 mm 0,0 UV-I 0 W/m 6,9 C 12,0 C 4,0 km/h (1 Bft) 0,00 %
10.09.2015 21:00 12,0 C 71 % 1018,4 hPa 0,0 l/m 0,7 km/h (0 Bft) NO 41 0 min 0,000 mm 0,0 UV-I 0 W/m 6,9 C 12,0 C 4,0 km/h (1 Bft) 0,00 %
10.09.2015 21:05 11,9 C 71 % 1018,6 hPa 0,0 l/m 0,0 km/h (0 Bft) NO 50 0 min 0,000 mm 0,0 UV-I 0 W/m 6,8 C 11,9 C 0,0 km/h (0 Bft) 0,00 %
10.09.2015 21:10 11,6 C 72 % 1018,6 hPa 0,0 l/m 0,4 km/h (0 Bft) O-SO 109 0 min 0,000 mm 0,0 UV-I 0 W/m 6,7 C 11,6 C 4,0 km/h (1 Bft) 0,00 %
10.09.2015 21:15 11,4 C 73 % 1018,5 hPa 0,0 l/m 0,4 km/h (0 Bft) S-SO 166 0 min 0,000 mm 0,0 UV-I 0 W/m 6,7 C 11,4 C 4,0 km/h (1 Bft) 0,00 %
10.09.2015 21:20 11,2 C 74 % 1018,5 hPa 0,0 l/m 0,7 km/h (0 Bft) N 356 0 min 0,000 mm 0,0 UV-I 0 W/m 6,7 C 11,2 C 4,0 km/h (1 Bft) 0,00 %
10.09.2015 21:25 11,1 C 74 % 1018,3 hPa 0,0 l/m 0,0 km/h (0 Bft) NO 56 0 min 0,000 mm 0,0 UV-I 0 W/m 6,6 C 11,1 C 0,0 km/h (0 Bft) 0,00 %
10.09.2015 21:30 11,1 C 74 % 1018,4 hPa 0,0 l/m 0,0 km/h (0 Bft) O-NO 67 0 min 0,000 mm 0,0 UV-I 0 W/m 6,6 C 11,1 C 0,0 km/h (0 Bft) 0,00 %
10.09.2015 21:35 11,1 C 74 % 1018,5 hPa 0,0 l/m 0,0 km/h (0 Bft) O 88 0 min 0,000 mm 0,0 UV-I 0 W/m 6,6 C 11,1 C 0,0 km/h (0 Bft) 0,00 %
10.09.2015 21:40 11,1 C 73 % 1018,5 hPa 0,0 l/m 2,2 km/h (1 Bft) SO 138 0 min 0,000 mm 0,0 UV-I 0 W/m 6,4 C 11,1 C 4,0 km/h (1 Bft) 0,00 %
10.09.2015 21:45 11,3 C 72 % 1018,5 hPa 0,0 l/m 1,4 km/h (1 Bft) O-NO 61 0 min 0,000 mm 0,0 UV-I 0 W/m 6,4 C 11,3 C 4,0 km/h (1 Bft) 0,00 %
10.09.2015 21:50 11,3 C 72 % 1018,4 hPa 0,0 l/m 0,0 km/h (0 Bft) O 89 0 min 0,000 mm 0,0 UV-I 0 W/m 6,4 C 11,3 C 0,0 km/h (0 Bft) 0,00 %
10.09.2015 21:55 11,3 C 73 % 1018,5 hPa 0,0 l/m 0,0 km/h (0 Bft) N 354 0 min 0,000 mm 0,0 UV-I 0 W/m 6,6 C 11,3 C 0,0 km/h (0 Bft) 0,00 %
10.09.2015 22:00 11,2 C 73 % 1018,4 hPa 0,0 l/m 0,0 km/h (0 Bft) O-NO 62 0 min 0,000 mm 0,0 UV-I 0 W/m 6,5 C 11,2 C 0,0 km/h (0 Bft) 0,00 %
10.09.2015 22:05 11,1 C 74 % 1018,6 hPa 0,0 l/m 0,4 km/h (0 Bft) NO 39 0 min 0,000 mm 0,0 UV-I 0 W/m 6,6 C 11,1 C 4,0 km/h (1 Bft) 0,00 %
10.09.2015 22:10 10,9 C 76 % 1018,7 hPa 0,0 l/m 0,0 km/h (0 Bft) O 79 0 min 0,000 mm 0,0 UV-I 0 W/m 6,8 C 10,9 C 0,0 km/h (0 Bft) 0,00 %
10.09.2015 22:15 10,7 C 77 % 1018,4 hPa 0,0 l/m 0,0 km/h (0 Bft) NO 52 0 min 0,000 mm 0,0 UV-I 0 W/m 6,8 C 10,7 C 0,0 km/h (0 Bft) 0,00 %
10.09.2015 22:20 10,6 C 77 % 1018,5 hPa 0,0 l/m 0,0 km/h (0 Bft) O 85 0 min 0,000 mm 0,0 UV-I 0 W/m 6,7 C 10,6 C 0,0 km/h (0 Bft) 0,00 %
10.09.2015 22:25 10,5 C 78 % 1018,6 hPa 0,0 l/m 0,0 km/h (0 Bft) O 84 0 min 0,000 mm 0,0 UV-I 0 W/m 6,8 C 10,5 C 0,0 km/h (0 Bft) 0,00 %
10.09.2015 22:30 10,5 C 79 % 1018,6 hPa 0,0 l/m 0,0 km/h (0 Bft) O-NO 65 0 min 0,000 mm 0,0 UV-I 0 W/m 7,0 C 10,5 C 0,0 km/h (0 Bft) 0,00 %
10.09.2015 22:35 10,4 C 79 % 1018,6 hPa 0,0 l/m 0,0 km/h (0 Bft) NO 47 0 min 0,000 mm 0,0 UV-I 0 W/m 6,9 C 10,4 C 0,0 km/h (0 Bft) 0,00 %
10.09.2015 22:40 10,2 C 80 % 1018,6 hPa 0,0 l/m 0,0 km/h (0 Bft) O-NO 57 0 min 0,000 mm 0,0 UV-I 0 W/m 6,9 C 10,2 C 0,0 km/h (0 Bft) 0,00 %
10.09.2015 22:45 10,1 C 80 % 1018,5 hPa 0,0 l/m 0,0 km/h (0 Bft) O-NO 75 0 min 0,000 mm 0,0 UV-I 0 W/m 6,8 C 10,1 C 0,0 km/h (0 Bft) 0,00 %
10.09.2015 22:50 10,0 C 81 % 1018,5 hPa 0,0 l/m 0,0 km/h (0 Bft) O-NO 66 0 min 0,000 mm 0,0 UV-I 0 W/m 6,9 C 10,0 C 0,0 km/h (0 Bft) 0,00 %
10.09.2015 22:55 9,9 C 81 % 1018,5 hPa 0,0 l/m 0,0 km/h (0 Bft) O 87 0 min 0,000 mm 0,0 UV-I 0 W/m 6,8 C 9,9 C 0,0 km/h (0 Bft) 0,00 %
10.09.2015 23:00 9,9 C 82 % 1018,6 hPa 0,0 l/m 0,0 km/h (0 Bft) O-NO 58 0 min 0,000 mm 0,0 UV-I 0 W/m 7,0 C 9,9 C 0,0 km/h (0 Bft) 0,00 %
10.09.2015 23:05 9,8 C 82 % 1018,7 hPa 0,0 l/m 0,0 km/h (0 Bft) O-SO 113 0 min 0,000 mm 0,0 UV-I 0 W/m 6,9 C 9,8 C 0,0 km/h (0 Bft) 0,00 %
10.09.2015 23:10 9,7 C 82 % 1018,7 hPa 0,0 l/m 0,0 km/h (0 Bft) O 84 0 min 0,000 mm 0,0 UV-I 0 W/m 6,8 C 9,7 C 0,0 km/h (0 Bft) 0,00 %
10.09.2015 23:15 9,6 C 83 % 1018,6 hPa 0,0 l/m 0,0 km/h (0 Bft) O-NO 66 0 min 0,000 mm 0,0 UV-I 0 W/m 6,9 C 9,6 C 0,0 km/h (0 Bft) 0,00 %
10.09.2015 23:20 9,5 C 83 % 1018,6 hPa 0,0 l/m 3,2 km/h (1 Bft) SO 125 0 min 0,000 mm 0,0 UV-I 0 W/m 6,8 C 9,5 C 4,0 km/h (1 Bft) 0,00 %
10.09.2015 23:25 9,5 C 84 % 1018,5 hPa 0,0 l/m 0,0 km/h (0 Bft) O-NO 59 0 min 0,000 mm 0,0 UV-I 0 W/m 6,9 C 9,5 C 0,0 km/h (0 Bft) 0,00 %
10.09.2015 23:30 9,5 C 84 % 1018,5 hPa 0,0 l/m 0,0 km/h (0 Bft) O-NO 64 0 min 0,000 mm 0,0 UV-I 0 W/m 6,9 C 9,5 C 0,0 km/h (0 Bft) 0,00 %
10.09.2015 23:35 9,4 C 84 % 1018,4 hPa 0,0 l/m 0,0 km/h (0 Bft) NO 54 0 min 0,000 mm 0,0 UV-I 0 W/m 6,8 C 9,4 C 0,0 km/h (0 Bft) 0,00 %
10.09.2015 23:40 9,3 C 84 % 1018,6 hPa 0,0 l/m 1,4 km/h (1 Bft) O-SO 104 0 min 0,000 mm 0,0 UV-I 0 W/m 6,7 C 9,3 C 4,0 km/h (1 Bft) 0,00 %
10.09.2015 23:45 9,3 C 85 % 1018,6 hPa 0,0 l/m 0,0 km/h (0 Bft) NO 55 0 min 0,000 mm 0,0 UV-I 0 W/m 6,9 C 9,3 C 0,0 km/h (0 Bft) 0,00 %
10.09.2015 23:50 9,2 C 85 % 1018,6 hPa 0,0 l/m 0,7 km/h (0 Bft) SO 124 0 min 0,000 mm 0,0 UV-I 0 W/m 6,8 C 9,2 C 4,0 km/h (1 Bft) 0,00 %
10.09.2015 23:55 9,2 C 85 % 1018,6 hPa 0,0 l/m 0,0 km/h (0 Bft) O-NO 67 0 min 0,000 mm 0,0 UV-I 0 W/m 6,8 C 9,2 C 0,0 km/h (0 Bft) 0,00 %
_ Min-Zeit 04:59 15:45 18:20 - 00:04 - - - - - - 04:59 04:59 00:04 00:04
Minimum _ 5,0 C 45 % 1017,4 hPa - 0,0 km/h (0 Bft) - - - - - - 4,7 C 5,0 C 0,0 km/h (0 Bft) 0,00 %
_ Max-Zeit 14:25 07:09 00:24 00:04 16:15 - - 09:34 00:04 12:10 12:40 11:05 14:20 11:35 00:04
Maximum _ 17,5 C 99 % 1022,9 hPa 0,0 l/m 18,0 km/h
N (3 Bft)
- - 5 min 0,000 mm 3,0 UV-I 805 W/m 8,7 C 17,4 C 24,1 km/h
O-NO (4 Bft)
0,00 %
Durchschnitt _ 10,9 C 78 % 1020,0 hPa #0,0 l/m 3,1 km/h (1 Bft) O-SO - #4:55 h #0,000 mm 1,6 UV-I 302 W/m 6,7 C 10,5 C 5,2 km/h (1 Bft) 0,00 %